www.pogodaiklimat.ru

Погода и климат >> Архив погоды >> Россия >> Ингушетия >> Назрань


ПОГОДА в Назрани

АРХИВ ПОГОДЫ в Назрани

Время (UTC), дата Ветер
(напр.,м/с)
 
Видим.   Явления Облачность Т
(С)
Тd
(С)
f
(%)
Тe
(С)
Тes
(С)
Комфортность P
(гПа)
Po
(гПа)
Тmin
(С)
Tmax
(С)
R
(мм)
R24
(мм)
S
(см)
00 10.09 штиль 0 10 км 10/0
[Ac As]
+11.8 +10.2 90 +11 +11 прохладно 1019.9 942.7
03 10.09 штиль 0 10 км 9/0
[Ac As]
+12.4 +10.9 91 +12 +12 прохладно 1020.2 943.1 +10.5
06 10.09 ЮЗ 2 20 км 10/0
[Ac As]
+14.6 +12.0 84 +14 +16 прохладно 1020.3 943.8
09 10.09 ЮЗ 1 100 м 10/10 700 м
[Sc]
+15.6 +11.9 79 +16 +16 прохладно 1020.5 944.3
12 10.09 ЮЗ 1 20 км 9/0
[Ac As]
+15.8 +12.5 81 +16 +19 прохладно 1020.6 944.4
15 10.09 З 1 20 км 10/0
[Ac As]
+15.4 +12.7 84 +16 +16 по сезону 1020.3 944.3 +17.0
18 10.09 Ю 2 10 км 10/0
[As op]
+14.0 +11.0 82 +13 +13 прохладно 1021.5 944.5
21 10.09 ЮВ 2 10 км 10/0
[As op]
+13.4 +9.9 79 +13 +13 по сезону 1021.9 944.7
00 11.09 ЮВ 2 10 км 10/0
[As op]
+13.0 +10.3 84 +12 +12 по сезону 1022.1 944.8
03 11.09 Ю 2 20 км 10/0
[As op]
+14.4 +10.8 79 +14 +14 по сезону 1022.4 945.4 +10.0
06 11.09 В 2 20 км 10/0
[As op]
+14.6 +10.4 76 +14 +16 прохладно 1023.0 945.0
09 11.09 В 2 20 км 10/0
[As op]
+17.0 +11.3 69 +17 +20 по сезону 1022.8 946.4
12 11.09 ЮВ 2 20 км 10/0
[As op]
+17.8 +12.4 71 +18 +20 прохладно 1022.7 946.6
15 11.09 Ю 2 20 км 10/0
[As op]
+16.0 +11.2 73 +16 +16 по сезону 1024.2 947.5 +18.0
18 11.09 ЮВ 2 10 км 10/0
[As op]
+14.0 +9.5 74 +14 +14 по сезону 1025.9 948.6
21 11.09 Ю 2 10 км 10/0
[As op]
+13.4 +9.1 75 +13 +13 по сезону 1025.4 947.9
00 12.09 Ю 2 10 км 10/0
[As op]
+13.0 +9.5 79 +12 +12 по сезону 1025.2 947.6
03 12.09 Ю 2 20 км 10/0
[As op]
+14.0 +8.4 69 +14 +14 по сезону 1024.9 947.6 +10.0
06 12.09 Ю 2 20 км 3/0
[Ci fib]
+16.6 +8.2 58 +17 +22 по сезону 1024.9 948.2
09 12.09 В 2 20 км 8/8 1020 м
[Cu med, cong]
+19.6 +11.7 60 +22 +24 комфорт 1022.6 947.2
12 12.09 В 2 20 км 6/6 600 м
[Cb calv Ac trans]
+20.6 +10.1 51 +23 +25 комфорт 1021.9 946.7
15 12.09 Ю 1 20 км ясно +17.4 +9.4 59 +18 +18 по сезону 1022.8 946.8 +21.0
18 12.09 штиль 0 20 км ясно +16.1 +10.0 67 +16 +16 по сезону 1024.0 947.5
21 12.09 штиль 0 20 км ясно +12.2 +8.2 77 +12 +12 по сезону 1024.8 947.2
00 13.09 штиль 0 10 км ясно +11.0 +8.1 82 +10 +10 прохладно 1023.3 945.5
03 13.09 Ю 1 20 км ясно +10.4 +7.9 84 +10 +10 прохладно 1024.1 946.2 +8.6
06 13.09 С 1 20 км ясно +15.3 +9.3 67 +16 +24 по сезону 1023.4 946.8
09 13.09 Ю 2 20 км 1/1 1020 м
[Cu hum]
+20.2 +6.8 42 +22 +33 комфорт 1021.1 945.8
12 13.09 В 2 20 км ясно +20.6 +7.4 42 +22 +29 комфорт 1020.0 944.9
15 13.09 Ю 1 20 км 3/3 600 м
[Cb calv Ac trans]
+16.8 +8.9 60 +18 +18 по сезону 1021.1 945.1 +21.5
18 13.09 СВ 2 20 км ясно +14.1 +8.1 67 +14 +14 по сезону 1022.5 945.6
21 13.09 СВ 2 20 км ясно +12.0 +6.8 70 +11 +11 прохладно 1023.1 945.6
00 14.09 С 1 20 км ясно +11.1 +7.1 76 +11 +11 по сезону 1021.9 944.3
03 14.09 Ю 1 20 км ясно +10.4 +7.5 82 +10 +10 прохладно 1022.2 944.4 +8.5
06 14.09 В 2 20 км ясно +15.7 +9.3 66 +16 +22 по сезону 1020.8 944.5
09 14.09 В 2 20 км 1/1 1020 м
[Cu hum]
+20.2 +10.2 53 +22 +34 комфорт 1018.6 943.5
12 14.09 ЮВ 2 20 км ясно +22.1 +11.1 50 +24 +31 комфорт 1017.4 942.7
15 14.09 Ю 2 20 км ясно +18.0 +12.2 69 +19 +19 тепло 1016.8 941.9 +21.0
18 14.09 В 2 10 км ясно +17.0 +11.7 71 +17 +17 тепло 1018.3 942.2
21 14.09 ЮВ 2 20 км ясно +13.0 +7.7 70 +12 +12 по сезону 1019.2 942.0
00 15.09 Ю 2 10 км ясно +13.0 +7.7 70 +12 +12 по сезону 1019.2 942.0
03 15.09 ЮВ 2 20 км ясно +14.0 +8.0 67 +14 +14 по сезону 1019.1 942.2 +10.0
06 15.09 Ю 2 20 км ясно +17.7 +9.8 60 +18 +24 тепло 1019.1 943.1
09 15.09 Ю 2 20 км 10/0
[As op]
+20.0 +11.9 60 +22 +25 комфорт 1017.9 942.6
12 15.09 Ю 2 20 км 10/0
[As op]
+21.0 +11.5 55 +24 +25 комфорт 1017.4 942.4
15 15.09 ЮВ 2 20 км 10/0
[As op]
+19.0 +10.9 59 +20 +20 тепло 1017.8 941.4 +22.0
18 15.09 Ю 2 10 км 10/0
[As op]
+16.0 +9.3 64 +16 +16 тепло 1020.5 944.1
21 15.09 ЮВ 2 10 км 10/0
[As op]
+14.6 +6.8 59 +14 +14 по сезону 1021.5 944.6
00 16.09 Ю 2 10 км 10/0
[As op]
+14.0 +8.4 69 +14 +14 тепло 1021.7 944.7
03 16.09 ЮВ 2 20 км 10/0
[As op]
+14.6 +9.1 70 +14 +14 по сезону 1019.0 942.3 +9.0
06 16.09 В 2 20 км 3/0
[Ci fib]
+17.0 +9.1 60 +17 +23 по сезону 1018.3 942.2
09 16.09 Ю 2 20 км ясно +22.0 +11.0 50 +24 +36 комфорт 1014.6 940.0
12 16.09 В 1 20 км 3/3 600 м
[Cb calv]
+21.8 +10.3 48 +24 +29 комфорт 1012.9 938.7
15 16.09 В 2 20 км 3/0
[Ac As]
+19.3 +10.8 58 +21 +21 комфорт 1013.0 938.3 +23.5
18 16.09 В 1 20 км ясно +16.5 +11.9 74 +17 +17 тепло 1013.3 937.8
21 16.09 В 1 20 км ясно +15.4 +11.5 78 +16 +16 тепло 1013.8 938.0

 

Местоположение метеостанции Назрань (Ингушетия, Россия): широта 43.15 долгота 44.85 высота над уровнем моря 665 м.

В архиве по умолчанию представлена погода в Назрани за последнюю неделю. Архивные данные за месяц целиком и за предыдущие месяцы, начиная с января 2011 года, Вы можете получить, выбрав интересующий диапазон дат из раскрывающегося списка и нажав кнопку "Ввод!".


*Определитесь, кто Вы:
робот инопланетянин человек

Внимание! Время в таблицах - всемирное. Для получения местного времени необходимо прибавить поправку, которая равна 3 ч.

Смотрите также архив погоды в соседних городах и на ближайших метеорологических станциях:

Погода в Владикавказе (Северная Осетия, Россия) (19 км)
Погода в Алагире (Северная Осетия, Россия) (50 км)
Погода в Моздоке (Северная Осетия, Россия) (66 км)
Погода в Наурской (Чечня, Россия) (67 км)
Погода в Грозном (Чечня, Россия) (71 км)
Погода в Шатое (Чечня, Россия) (74 км)
Погода на Рокском Перевале (Северная Осетия, Россия) (85 км)
Погода в Наре (Северная Осетия, Россия) (87 км)
Погода в Пасанаури (Грузия) (90 км)
Погода в Прохладный (Кабардино-Балкария, Россия) (93 км)

Пояснения к столбцам:

Ветер - указаны скорость ветра в м/с - средняя за 10 мин, порывы в срок и между сроками (в фигурных скобках) и направление, откуда дует ветер: С - северный, СВ - северо-восточный, В - восточный, ЮВ - юго-восточный, Ю - южный, ЮЗ - юго-западный, З - западный, СЗ - северо-западный.
Видимость - горизонтальная дальность видимости в метрах или километрах. При видимости от 1 до 10 км при отсутствии осадков обычно наблюдается дымка, при ухудшении видимости до 1 км и менее - туман. В сухую погоду видимость может ухудшаться дымом, пылью или мглою.
Явления - указаны атмосферные явления, наблюдавшиеся в срок или в последний час перед сроком; фигурными скобками обозначены явления, наблюдавшиеся между сроками (за 1-3 часа до срока); квадратными скобками обозначены град или гололедные отложения с указанием их диаметра в мм.
Облачность - указаны через наклонную черту общая и нижняя облачность в баллах и высота нижней границы облаков в метрах; квадратными скобками обозначены формы облаков: Ci - перистые, Cs - перисто-слоистые, Cc - перисто-кучевые, Ac - высококучевые, As - высокослоистые, Sc - слоисто-кучевые, Ns - слоисто-дождевые, Cu - кучевые, Cb - кучево-дождевые. Подробнее классификацию облаков см. в Атласе облаков (PDF).
T - Температура воздуха - температура, измеренная на высоте 2 м над землей.
Td - Температура точки росы - температура, при понижении до которой содержащийся в воздухе водяной пар достигнет насыщения.
f - Относительная влажность воздуха - влажноcть воздуха, измеренная на высоте 2 м над землей.
Te - Эффективная температура - температура, которую ощущает одетый по сезону человек в тени. Характеристика душности погоды. При расчете учитывается влияние влажности воздуха и скорости ветра на теплоощущения человека.
Tes - Эффективная температура на солнце - температура, которую ощущает человек, с поправкой на солнечный нагрев. Характеристика знойности погоды. Зависит от высоты солнца над горизонтом, облачности и скорости ветра. Ночью, в пасмурную погоду, а также при ветре 12 м/с и более поправка равна нулю.
P - Атмосферное давление - приведенное к уровню моря атмосферное давление.
Po - Атмосферное давление - измеренное на уровне метеостанции атмосферное давление.
Tmin - Минимальная температура - минимум температуры воздуха на высоте 2 м над землей.
Tmax - Максимальная температура - максимум температуры воздуха на высоте 2 м над землей.
R - Количество осадков - Количество выпавших осадков за период времени, мм. При наведении курсора мыши на число - период времени, за который выпало указанное количество осадков.
R24 - Количество осадков - Количество выпавших осадков за 24 часа, мм.
S - Снежный покров - Высота снежного покрова, см. При наведении курсора мыши на число - состояние снежного покрова и степень покрытия местности в баллах.